This demonstration page uses our WeatherBlox Daily Observations layout. Learn more.

Left ArrowRight Arrow

40.92501, -98.34201

Hourly Observations for September 3, 2022

Temp ( °F °C ) Dew Point ( °F °C ) Humidity (%) Winds ( mph kmh ) Pressure ( in mb ) Visibility ( mi km ) Precip ( " mm )
12:53 am 00:53 Clear 70 21.1 51 10.6 51 51 NNE 10 17 30.12 1020 10 16 0.00 0.00
1:53 am 01:53 Clear 67 19.4 48 8.9 51 51 N 3 6 30.14 1021 10 16 0.00 0.00
2:53 am 02:53 Clear 62 16.7 50 10 65 65 NNE 5 7 30.16 1021 10 16 0.00 0.00
3:53 am 03:53 Clear 59 15 50 10 72 72 N 9 15 30.17 1022 10 16 0.00 0.00
4:53 am 04:53 Clear 60 15.6 51 10.6 72 72 NNW 9 15 30.18 1022 10 16 0.00 0.00
5:53 am 05:53 Clear 59 15 51 10.6 75 75 NNW 7 11 30.19 1023 10 16 0.00 0.00
6:53 am 06:53 Clear 57 13.9 51 10.6 80 80 N 10 17 30.20 1023 10 16 0.00 0.00
7:53 am 07:53 Sunny 58 14.4 51 10.6 78 78 N 8 13 30.23 1024 10 16 0.00 0.00
8:53 am 08:53 Sunny 65 18.3 51 10.6 61 61 NNE 12 19 30.24 1024 10 16 0.00 0.00
9:53 am 09:53 Sunny 69 20.6 47 8.3 45 45 NNE 16 26 30.25 1024 10 16 0.00 0.00
10:53 am 10:53 Sunny 72 22.2 46 7.8 40 40 NNE 14 22 30.26 1025 10 16 0.00 0.00
11:53 am 11:53 Sunny 74 23.3 48 8.9 40 40 NE 8 13 30.27 1025 10 16 0.00 0.00
12:53 pm 12:53 Sunny 78 25.6 45 7.2 31 31 NE 14 22 30.25 1024 10 16 0.00 0.00
1:53 pm 13:53 Sunny 80 26.7 42 5.6 26 26 NE 14 22 30.24 1024 10 16 0.00 0.00
2:53 pm 14:53 Sunny 82 27.8 41 5 23 23 NNE 16 26 30.22 1023 10 16 0.00 0.00
3:53 pm 15:53 Sunny 83 28.3 40 4.4 22 22 NE 14 22 30.20 1023 10 16 0.00 0.00
4:53 pm 16:53 Sunny 82 27.8 43 6.1 25 25 NNE 10 17 30.18 1022 10 16 0.00 0.00
5:53 pm 17:53 Sunny 81 27.2 41 5 24 24 NE 12 19 30.18 1022 10 16 0.00 0.00
6:53 pm 18:53 Sunny 79 26.1 46 7.8 31 31 NE 8 13 30.18 1022 10 16 0.00 0.00
7:53 pm 19:53 Sunny 72 22.2 51 10.6 48 48 NE 3 6 30.18 1022 10 16 0.00 0.00
8:53 pm 20:53 Clear 65 18.3 50 10 58 58 NNW 3 6 30.19 1023 10 16 0.00 0.00
9:53 pm 21:53 Clear 63 17.2 47 8.3 56 56 N 6 9 30.21 1023 10 16 0.00 0.00
10:53 pm 22:53 Clear 61 16.1 48 8.9 62 62 N 3 6 30.21 1023 10 16 0.00 0.00
11:53 pm 23:53 Clear 58 14.4 47 8.3 67 67 N 5 7 30.22 1023 10 16 0.00 0.00

Powered by AerisWeather